Volver al catálogo

STARLINK-32648

ActivoComunicacionesVLEO
NORAD 62301·PAYLOAD·🇺🇸 United States

Lanzado Dec 13, 2024 desde Vandenberg Space Force Base

Loading…

Próximos Pases (próximas 24 horas)

TLE

ActualizadoSource: CelesTrak SupGP

Época: Sep 14, 2026, 22:35 UTC

1 62301C 24239A   26257.94145833 -.00001321  00000+0 -39040-4 0  2576
2 62301  53.1592  19.3364 0001229  83.2710  72.6264 15.34374823    18

Sigue STARLINK-32648 en tiempo real con AllMySat

Download on the App Store